Radiation Dose at Monitoring Post of Fukushima Daini Nuclear Power Station
Date,Time,MP-1(microSv/h),MP-2(microSv/h),MP-3(microSv/h),MP-4(microSv/h),MP-5(microSv/h),MP-6(microSv/h),MP-7(microSv/h),Wind Direction,Wind Velocity(m/s),Rain
2020/07/07,00:00,0.164,0.151,0.241,0.231,0.239,0.130,0.080,south,7.7,No
2020/07/07,00:10,0.162,0.151,0.241,0.233,0.238,0.129,0.080,south,6.9,No
2020/07/07,00:20,0.163,0.149,0.237,0.230,0.239,0.130,0.080,south,6.9,No
2020/07/07,00:30,0.163,0.151,0.241,0.230,0.238,0.128,0.079,south,7.3,No
2020/07/07,00:40,0.162,0.150,0.240,0.232,0.238,0.129,0.080,south,7.0,No
2020/07/07,00:50,0.164,0.150,0.239,0.229,0.240,0.130,0.079,south,7.1,Yes
2020/07/07,01:00,0.162,0.151,0.241,0.230,0.236,0.128,0.079,south,6.8,Yes
2020/07/07,01:10,0.163,0.150,0.240,0.231,0.238,0.129,0.080,south,7.4,Yes
2020/07/07,01:20,0.165,0.151,0.240,0.230,0.238,0.129,0.079,south,7.5,No
2020/07/07,01:30,0.164,0.150,0.240,0.231,0.236,0.128,0.080,south-southeast,7.4,No
2020/07/07,01:40,0.163,0.150,0.240,0.231,0.240,0.130,0.079,south,7.1,No
2020/07/07,01:50,0.164,0.150,0.242,0.231,0.239,0.128,0.079,south,5.7,No
2020/07/07,02:00,0.163,0.150,0.240,0.231,0.237,0.129,0.080,south,3.3,No
2020/07/07,02:10,0.162,0.150,0.240,0.230,0.239,0.129,0.079,south-southeast,2.1,No
2020/07/07,02:20,0.163,0.150,0.241,0.232,0.238,0.129,0.080,south,3.1,Yes
2020/07/07,02:30,0.162,0.149,0.240,0.231,0.237,0.128,0.080,south,2.8,Yes
2020/07/07,02:40,0.164,0.151,0.242,0.229,0.240,0.130,0.080,south,3.5,Yes
2020/07/07,02:50,0.165,0.149,0.241,0.232,0.237,0.129,0.080,south,6.2,Yes
2020/07/07,03:00,0.163,0.151,0.240,0.232,0.239,0.129,0.080,south,6.8,No
2020/07/07,03:10,0.164,0.151,0.242,0.230,0.240,0.130,0.080,south,8.7,No
2020/07/07,03:20,0.163,0.150,0.240,0.233,0.237,0.130,0.080,south-southwest,8.5,No
2020/07/07,03:30,0.163,0.150,0.239,0.231,0.238,0.128,0.080,south,9.0,Yes
2020/07/07,03:40,0.165,0.150,0.242,0.231,0.239,0.130,0.080,south,9.0,Yes
2020/07/07,03:50,0.163,0.151,0.239,0.232,0.236,0.129,0.080,south,8.4,No
2020/07/07,04:00,0.162,0.151,0.239,0.230,0.238,0.129,0.079,south,7.5,No
2020/07/07,04:10,0.164,0.150,0.243,0.232,0.241,0.130,0.080,south,7.9,Yes
2020/07/07,04:20,0.163,0.151,0.241,0.232,0.238,0.130,0.080,south,8.6,Yes
2020/07/07,04:30,0.165,0.151,0.240,0.230,0.239,0.130,0.080,south,7.6,Yes
2020/07/07,04:40,0.165,0.150,0.242,0.232,0.239,0.130,0.080,south,6.9,Yes
2020/07/07,04:50,0.164,0.151,0.239,0.232,0.238,0.130,0.080,south,6.1,No
2020/07/07,05:00,0.165,0.149,0.243,0.230,0.238,0.129,0.080,south-southwest,2.3,No
2020/07/07,05:10,0.164,0.150,0.241,0.232,0.241,0.129,0.080,south,2.1,No
2020/07/07,05:20,0.162,0.150,0.238,0.231,0.237,0.130,0.080,south-southeast,0.9,No
2020/07/07,05:30,0.164,0.150,0.243,0.230,0.238,0.128,0.079,south,1.5,No
2020/07/07,05:40,0.164,0.151,0.241,0.232,0.239,0.130,0.080,east-southeast,0.7,No
2020/07/07,05:50,0.164,0.150,0.240,0.231,0.237,0.130,0.080,southeast,1.3,No
2020/07/07,06:00,0.164,0.150,0.242,0.231,0.238,0.128,0.079,south,2.9,Yes
2020/07/07,06:10,0.163,0.150,0.240,0.231,0.240,0.129,0.079,south,2.1,No
2020/07/07,06:20,0.164,0.150,0.241,0.229,0.236,0.129,0.079,south,2.2,No
2020/07/07,06:30,0.164,0.151,0.241,0.232,0.239,0.128,0.079,south-southeast,4.5,No
2020/07/07,06:40,0.163,0.150,0.238,0.231,0.239,0.129,0.079,south,6.0,No
2020/07/07,06:50,0.164,0.149,0.241,0.229,0.236,0.129,0.079,south,5.3,No
2020/07/07,07:00,0.165,0.149,0.242,0.232,0.239,0.129,0.079,south-southeast,4.1,No
2020/07/07,07:10,0.163,0.149,0.239,0.232,0.238,0.128,0.079,south-southeast,4.1,No
2020/07/07,07:20,0.164,0.149,0.241,0.230,0.236,0.129,0.079,south-southeast,5.0,No
2020/07/07,07:30,0.164,0.151,0.242,0.233,0.237,0.128,0.079,south-southeast,4.9,No
2020/07/07,07:40,0.163,0.150,0.240,0.232,0.240,0.128,0.080,south-southeast,5.4,No
2020/07/07,07:50,0.163,0.149,0.240,0.229,0.237,0.130,0.079,south-southeast,6.9,No
2020/07/07,08:00,0.164,0.151,0.242,0.231,0.236,0.128,0.079,south-southeast,6.9,No
2020/07/07,08:10,0.161,0.150,0.241,0.232,0.239,0.129,0.079,south-southeast,5.5,No
2020/07/07,08:20,0.163,0.150,0.239,0.231,0.240,0.129,0.079,south-southeast,5.9,No
2020/07/07,08:30,0.164,0.151,0.242,0.230,0.237,0.130,0.079,south-southeast,7.0,No
2020/07/07,08:40,0.165,0.150,0.241,0.232,0.237,0.130,0.080,south-southeast,6.6,No
2020/07/07,08:50,0.163,0.150,0.241,0.231,0.241,0.130,0.079,south-southeast,6.7,No
2020/07/07,09:00,0.164,0.150,0.240,0.231,0.238,0.130,0.079,south,5.8,No
2020/07/07,09:10,0.164,0.151,0.243,0.233,0.236,0.128,0.079,south,6.3,No
2020/07/07,09:20,0.162,0.150,0.242,0.232,0.238,0.129,0.079,south-southeast,4.9,No
2020/07/07,09:30,0.164,0.151,0.240,0.230,0.240,0.129,0.080,south-southeast,4.7,No
2020/07/07,09:40,0.166,0.151,0.240,0.233,0.237,0.129,0.080,south,3.1,Yes
2020/07/07,09:50,0.163,0.150,0.239,0.232,0.239,0.128,0.079,south-southeast,3.1,No
2020/07/07,10:00,0.164,0.151,0.238,0.231,0.240,0.129,0.080,south-southeast,3.9,No
2020/07/07,10:10,0.164,0.150,0.241,0.235,0.239,0.129,0.079,south-southeast,4.2,No
2020/07/07,10:20,0.162,0.150,0.240,0.232,0.237,0.128,0.078,south-southeast,5.5,No
2020/07/07,10:30,0.164,0.150,0.239,0.231,0.237,0.129,0.079,south-southeast,6.8,No
2020/07/07,10:40,0.165,0.151,0.238,0.231,0.240,0.130,0.079,south-southeast,7.0,No
2020/07/07,10:50,0.164,0.150,0.241,0.234,0.238,0.128,0.079,south,7.5,No
2020/07/07,11:00,0.164,0.149,0.241,0.232,0.239,0.129,0.079,south-southeast,6.6,No
2020/07/07,11:10,0.163,0.149,0.240,0.231,0.236,0.130,0.080,south-southeast,6.9,No
2020/07/07,11:20,0.165,0.151,0.239,0.230,0.236,0.130,0.079,south-southeast,7.4,No
2020/07/07,11:30,0.165,0.151,0.240,0.230,0.236,0.129,0.079,south-southeast,6.7,No
2020/07/07,11:40,0.164,0.151,0.242,0.234,0.240,0.130,0.079,south,3.8,No
2020/07/07,11:50,0.163,0.150,0.244,0.233,0.239,0.129,0.079,south,4.2,No
2020/07/07,12:00,0.165,0.149,0.242,0.233,0.239,0.129,0.079,south,3.4,No
2020/07/07,12:10,0.165,0.151,0.240,0.231,0.237,0.129,0.080,south,1.4,No
2020/07/07,12:20,0.163,0.152,0.240,0.231,0.237,0.129,0.080,south-southeast,1.6,No
2020/07/07,12:30,0.163,0.150,0.243,0.234,0.240,0.129,0.080,south,3.4,No
2020/07/07,12:40,0.165,0.151,0.243,0.234,0.241,0.129,0.079,south,4.0,No
2020/07/07,12:50,0.165,0.151,0.241,0.231,0.239,0.130,0.079,south,3.4,No
2020/07/07,13:00,0.163,0.151,0.240,0.233,0.237,0.129,0.080,south,3.7,No
2020/07/07,13:10,0.164,0.149,0.244,0.234,0.241,0.129,0.080,south,3.0,Yes
2020/07/07,13:20,0.166,0.151,0.242,0.233,0.242,0.128,0.079,south-southwest,1.7,Yes
2020/07/07,13:30,0.164,0.151,0.241,0.232,0.239,0.130,0.080,south,1.6,Yes
2020/07/07,13:40,0.164,0.151,0.243,0.234,0.238,0.130,0.081,south,1.4,Yes
2020/07/07,13:50,0.167,0.151,0.245,0.234,0.242,0.129,0.080,south-southeast,2.3,Yes
2020/07/07,14:00,0.167,0.153,0.242,0.232,0.243,0.131,0.082,south,3.4,Yes
2020/07/07,14:10,0.165,0.152,0.240,0.236,0.239,0.132,0.081,south,2.9,No
2020/07/07,14:20,0.167,0.152,0.244,0.234,0.241,0.131,0.081,south,3.5,Yes
2020/07/07,14:30,0.166,0.153,0.242,0.232,0.242,0.131,0.081,south,3.9,Yes
2020/07/07,14:40,0.165,0.152,0.241,0.234,0.240,0.133,0.081,south,5.6,Yes
2020/07/07,14:50,0.167,0.153,0.243,0.237,0.239,0.131,0.081,south,5.0,Yes
2020/07/07,15:00,0.166,0.153,0.242,0.233,0.241,0.131,0.082,south,4.3,Yes
2020/07/07,15:10,0.166,0.151,0.242,0.235,0.241,0.131,0.081,south,3.5,Yes
2020/07/07,15:20,0.167,0.151,0.242,0.235,0.238,0.130,0.081,south-southeast,3.9,Yes
2020/07/07,15:30,0.166,0.153,0.245,0.233,0.240,0.130,0.081,south,4.5,Yes
2020/07/07,15:40,0.165,0.152,0.242,0.234,0.242,0.131,0.080,south,5.1,No
2020/07/07,15:50,0.166,0.151,0.242,0.235,0.239,0.131,0.081,south,5.5,Yes
2020/07/07,16:00,0.165,0.153,0.245,0.233,0.238,0.130,0.081,south,5.7,No
2020/07/07,16:10,0.164,0.152,0.242,0.234,0.242,0.131,0.080,south,6.2,No
2020/07/07,16:20,0.166,0.150,0.240,0.235,0.240,0.131,0.080,south,6.3,No
2020/07/07,16:30,0.164,0.150,0.243,0.232,0.237,0.129,0.081,south,6.4,No
2020/07/07,16:40,0.164,0.152,0.243,0.232,0.238,0.130,0.080,south,7.4,Yes
2020/07/07,16:50,0.165,0.151,0.241,0.235,0.242,0.131,0.080,south,7.4,No
2020/07/07,17:00,0.165,0.150,0.240,0.232,0.241,0.130,0.081,south,5.9,No
2020/07/07,17:10,0.165,0.153,0.244,0.232,0.236,0.130,0.079,south,5.1,Yes
2020/07/07,17:20,0.166,0.151,0.241,0.235,0.241,0.130,0.080,south,3.6,No
2020/07/07,17:30,0.166,0.150,0.241,0.233,0.240,0.129,0.080,south,5.0,No
2020/07/07,17:40,0.165,0.152,0.243,0.231,0.237,0.129,0.079,south,5.0,No
2020/07/07,17:50,0.164,0.152,0.243,0.234,0.238,0.130,0.080,south-southwest,4.1,Yes
2020/07/07,18:00,0.165,0.151,0.240,0.233,0.241,0.130,0.080,south-southwest,3.9,No
2020/07/07,18:10,0.164,0.152,0.244,0.232,0.239,0.129,0.079,south-southwest,4.0,No
2020/07/07,18:20,0.164,0.151,0.243,0.234,0.238,0.130,0.080,south-southwest,3.6,No
2020/07/07,18:30,0.166,0.151,0.241,0.233,0.239,0.129,0.080,south-southwest,3.3,Yes
2020/07/07,18:40,0.166,0.152,0.242,0.231,0.241,0.129,0.079,southwest,2.2,Yes
2020/07/07,18:50,0.165,0.152,0.243,0.233,0.238,0.131,0.080,south-southwest,3.1,Yes
2020/07/07,19:00,0.166,0.151,0.240,0.235,0.239,0.131,0.081,southwest,3.6,Yes
2020/07/07,19:10,0.165,0.151,0.243,0.233,0.241,0.129,0.080,south-southwest,3.5,No
2020/07/07,19:20,0.165,0.152,0.245,0.234,0.240,0.131,0.080,south-southwest,4.3,No
2020/07/07,19:30,0.165,0.150,0.241,0.235,0.237,0.130,0.079,south-southwest,3.7,No
2020/07/07,19:40,0.165,0.151,0.242,0.232,0.241,0.129,0.079,south-southwest,1.8,No
2020/07/07,19:50,0.164,0.151,0.245,0.234,0.240,0.130,0.080,south-southwest,2.4,No
2020/07/07,20:00,0.166,0.150,0.242,0.234,0.237,0.131,0.080,south-southwest,2.8,No
2020/07/07,20:10,0.165,0.152,0.242,0.232,0.240,0.130,0.080,south-southwest,3.4,No
2020/07/07,20:20,0.165,0.151,0.243,0.234,0.240,0.130,0.080,south-southwest,3.8,No
2020/07/07,20:30,0.166,0.151,0.242,0.234,0.238,0.130,0.080,south,4.3,No
2020/07/07,20:40,0.165,0.152,0.242,0.233,0.239,0.129,0.080,south,4.0,No
2020/07/07,20:50,0.165,0.151,0.243,0.234,0.241,0.131,0.079,south-southwest,4.1,Yes
2020/07/07,21:00,0.166,0.151,0.242,0.233,0.238,0.130,0.080,southwest,3.5,Yes
2020/07/07,21:10,0.165,0.152,0.242,0.232,0.237,0.130,0.080,southwest,4.8,Yes
2020/07/07,21:20,0.165,0.151,0.245,0.235,0.242,0.131,0.080,southwest,5.6,Yes
2020/07/07,21:30,0.167,0.151,0.242,0.234,0.240,0.130,0.080,southwest,5.2,Yes
2020/07/07,21:40,0.165,0.151,0.242,0.232,0.237,0.131,0.081,southwest,4.5,Yes
2020/07/07,21:50,0.165,0.150,0.245,0.235,0.241,0.130,0.081,west-southwest,3.4,Yes
2020/07/07,22:00,0.168,0.151,0.244,0.234,0.241,0.130,0.080,west-southwest,4.3,No
2020/07/07,22:10,0.165,0.152,0.242,0.232,0.237,0.129,0.081,west-southwest,4.6,Yes
2020/07/07,22:20,0.164,0.151,0.245,0.235,0.238,0.130,0.079,west-southwest,3.0,Yes
2020/07/07,22:30,0.167,0.152,0.244,0.235,0.242,0.130,0.081,southwest,1.8,No
2020/07/07,22:40,0.166,0.152,0.241,0.232,0.240,0.130,0.081,west-southwest,1.5,No
2020/07/07,22:50,0.165,0.151,0.244,0.233,0.237,0.131,0.080,west-southwest,2.2,Yes
2020/07/07,23:00,0.167,0.152,0.245,0.236,0.240,0.130,0.080,west,1.7,No
2020/07/07,23:10,0.166,0.151,0.242,0.233,0.240,0.130,0.081,west-northwest,1.9,No
2020/07/07,23:20,0.166,0.152,0.245,0.234,0.238,0.131,0.080,north-northwest,2.7,Yes
2020/07/07,23:30,0.167,0.154,0.243,0.235,0.238,0.130,0.080,northwest,4.7,Yes
2020/07/07,23:40,0.166,0.151,0.242,0.232,0.243,0.130,0.080,northwest,4.0,Yes
2020/07/07,23:50,0.167,0.153,0.244,0.235,0.241,0.132,0.081,west-northwest,2.9,Yes
